Time,TemperatureF,DewpointF,PressureIn,WindDirection,WindDirectionDegrees,WindSpeedMPH,WindSpeedGustMPH,Humidity,HourlyPrecipIn,Conditions,Clouds,dailyrainin,SoftwareType,DateUTC
2013-02-08 00:03:00,46.6,46.0,29.81,NNE,22,1.6,-999.0,98,-99.99,,,0.26,Acu-Link.com,2013-02-08 02:03:00,
2013-02-08 00:18:00,46.8,46.2,29.80,South,180,3.8,-999.0,98,-99.99,,,0.26,Acu-Link.com,2013-02-08 02:18:00,
2013-02-08 00:33:00,47.1,46.6,29.80,NNE,22,1.6,-999.0,98,-99.99,,,0.26,Acu-Link.com,2013-02-08 02:33:00,
2013-02-08 00:48:00,47.3,46.8,29.80,East,90,1.1,-999.0,98,-99.99,,,0.26,Acu-Link.com,2013-02-08 02:48:00,
2013-02-08 01:03:00,47.5,46.9,29.80,SSE,157,1.1,-999.0,98,-99.99,,,0.26,Acu-Link.com,2013-02-08 03:03:00,
2013-02-08 01:19:00,47.7,47.1,29.80,ESE,112,0.0,-999.0,98,-99.99,,,0.26,Acu-Link.com,2013-02-08 03:19:00,
2013-02-08 01:34:00,47.5,46.9,29.80,ESE,112,0.0,-999.0,98,-99.99,,,0.26,Acu-Link.com,2013-02-08 03:34:00,
2013-02-08 01:49:00,47.3,46.8,29.80,SSE,157,3.8,-999.0,98,-99.99,,,0.26,Acu-Link.com,2013-02-08 03:49:00,
2013-02-08 02:04:00,47.1,46.6,29.80,SE,135,2.2,-999.0,98,-99.99,,,0.26,Acu-Link.com,2013-02-08 04:04:00,
2013-02-08 02:19:00,46.9,46.4,29.79,SE,135,2.2,-999.0,98,-99.99,,,0.26,Acu-Link.com,2013-02-08 04:19:00,
2013-02-08 02:35:00,46.6,46.0,29.79,South,180,1.6,-999.0,98,-99.99,,,0.26,Acu-Link.com,2013-02-08 04:35:00,
2013-02-08 02:50:00,46.6,46.0,29.79,SSW,202,2.2,-999.0,98,-99.99,,,0.26,Acu-Link.com,2013-02-08 04:50:00,
2013-02-08 03:05:00,46.4,45.9,29.79,SSE,157,0.0,-999.0,98,-99.99,,,0.00,Acu-Link.com,2013-02-08 05:05:00,
2013-02-08 03:20:00,46.0,45.5,29.79,SE,135,0.0,-999.0,98,-99.99,,,0.00,Acu-Link.com,2013-02-08 05:20:00,
2013-02-08 03:35:00,45.9,45.3,29.78,NE,45,0.0,-999.0,98,-99.99,,,0.00,Acu-Link.com,2013-02-08 05:35:00,
2013-02-08 03:51:00,45.7,45.1,29.78,South,180,0.0,-999.0,98,-99.99,,,0.00,Acu-Link.com,2013-02-08 05:51:00,
2013-02-08 04:06:00,45.7,45.1,29.78,NNE,22,0.0,-999.0,98,-99.99,,,0.00,Acu-Link.com,2013-02-08 06:06:00,
2013-02-08 04:21:00,45.3,44.8,29.78,SE,135,0.0,-999.0,98,-99.99,,,0.00,Acu-Link.com,2013-02-08 06:21:00,
2013-02-08 04:36:00,45.1,44.6,29.77,ESE,112,0.0,-999.0,98,-99.99,,,0.00,Acu-Link.com,2013-02-08 06:36:00,
2013-02-08 04:51:00,45.1,44.6,29.77,South,180,0.0,-999.0,98,-99.99,,,0.00,Acu-Link.com,2013-02-08 06:51:00,
2013-02-08 05:07:00,45.0,44.4,29.78,South,180,0.0,-999.0,98,-99.99,,,0.00,Acu-Link.com,2013-02-08 07:07:00,
2013-02-08 05:22:00,44.8,44.2,29.78,South,180,0.0,-999.0,98,-99.99,,,0.00,Acu-Link.com,2013-02-08 07:22:00,
2013-02-08 05:37:00,44.6,44.1,29.77,NE,45,0.0,-999.0,98,-99.99,,,0.00,Acu-Link.com,2013-02-08 07:37:00,
2013-02-08 05:52:00,44.6,44.1,29.76,SSW,202,0.0,-999.0,98,-99.99,,,0.00,Acu-Link.com,2013-02-08 07:52:00,
2013-02-08 06:07:00,44.6,44.1,29.77,NNE,22,0.0,-999.0,98,-99.99,,,0.00,Acu-Link.com,2013-02-08 08:07:00,
2013-02-08 06:23:00,44.6,44.1,29.77,NNE,22,0.0,-999.0,98,-99.99,,,0.00,Acu-Link.com,2013-02-08 08:23:00,
2013-02-08 06:38:00,44.6,44.1,29.76,South,180,0.0,-999.0,98,-99.99,,,0.00,Acu-Link.com,2013-02-08 08:38:00,
2013-02-08 06:53:00,44.6,44.1,29.76,NNE,22,0.0,-999.0,98,-99.99,,,0.00,Acu-Link.com,2013-02-08 08:53:00,
2013-02-08 07:08:00,44.4,43.9,29.75,North,0,0.0,-999.0,98,-99.99,,,0.00,Acu-Link.com,2013-02-08 09:08:00,
2013-02-08 07:23:00,44.1,43.5,29.75,NNE,22,0.0,-999.0,98,-99.99,,,0.00,Acu-Link.com,2013-02-08 09:23:00,
2013-02-08 07:39:00,43.9,43.4,29.76,East,90,0.0,-999.0,98,-99.99,,,0.00,Acu-Link.com,2013-02-08 09:39:00,
2013-02-08 07:54:00,43.9,43.4,29.76,NNW,337,0.0,-999.0,98,-99.99,,,0.00,Acu-Link.com,2013-02-08 09:54:00,
2013-02-08 08:09:00,44.1,43.5,29.76,South,180,0.0,-999.0,98,-99.99,,,0.00,Acu-Link.com,2013-02-08 10:09:00,
2013-02-08 08:24:00,44.1,43.5,29.77,ESE,112,0.0,-999.0,98,-99.99,,,0.00,Acu-Link.com,2013-02-08 10:24:00,
2013-02-08 08:39:00,44.1,43.5,29.76,NE,45,0.0,-999.0,98,-99.99,,,0.00,Acu-Link.com,2013-02-08 10:39:00,
2013-02-08 08:55:00,44.1,43.5,29.76,SSW,202,0.0,-999.0,98,-99.99,,,0.00,Acu-Link.com,2013-02-08 10:55:00,
2013-02-08 09:10:00,44.2,43.7,29.77,NNE,22,0.0,-999.0,98,-99.99,,,0.00,Acu-Link.com,2013-02-08 11:10:00,
2013-02-08 09:25:00,44.2,43.7,29.77,WNW,292,0.0,-999.0,98,-99.99,,,0.00,Acu-Link.com,2013-02-08 11:25:00,
2013-02-08 09:40:00,44.4,43.9,29.78,SE,135,0.0,-999.0,98,-99.99,,,0.00,Acu-Link.com,2013-02-08 11:40:00,
2013-02-08 09:56:00,44.2,43.7,29.79,NNW,337,0.0,-999.0,98,-99.99,,,0.00,Acu-Link.com,2013-02-08 11:56:00,
2013-02-08 10:11:00,43.9,43.4,29.79,East,90,0.0,-999.0,98,-99.99,,,0.00,Acu-Link.com,2013-02-08 12:11:00,
2013-02-08 10:26:00,44.1,43.5,29.79,East,90,0.0,-999.0,98,-99.99,,,0.00,Acu-Link.com,2013-02-08 12:26:00,
2013-02-08 10:41:00,44.1,43.5,29.80,NE,45,0.0,-999.0,98,-99.99,,,0.00,Acu-Link.com,2013-02-08 12:41:00,
2013-02-08 10:56:00,44.2,43.7,29.80,ESE,112,0.0,-999.0,98,-99.99,,,0.00,Acu-Link.com,2013-02-08 12:56:00,
2013-02-08 11:12:00,44.6,44.1,29.81,SSW,202,0.0,-999.0,98,-99.99,,,0.00,Acu-Link.com,2013-02-08 13:12:00,
2013-02-08 11:27:00,46.8,46.2,29.81,East,90,0.0,-999.0,98,-99.99,,,0.00,Acu-Link.com,2013-02-08 13:27:00,
2013-02-08 11:42:00,48.9,48.4,29.81,WSW,247,0.0,-999.0,98,-99.99,,,0.00,Acu-Link.com,2013-02-08 13:42:00,
2013-02-08 11:57:00,49.5,48.9,29.81,South,180,2.7,-999.0,98,-99.99,,,0.00,Acu-Link.com,2013-02-08 13:57:00,
2013-02-08 12:12:00,49.8,49.3,29.81,ENE,67,0.0,-999.0,98,-99.99,,,0.00,Acu-Link.com,2013-02-08 14:12:00,
2013-02-08 12:28:00,49.8,49.3,29.82,West,270,0.0,-999.0,98,-99.99,,,0.00,Acu-Link.com,2013-02-08 14:28:00,
2013-02-08 12:43:00,50.5,50.0,29.82,WNW,292,2.2,-999.0,98,-99.99,,,0.00,Acu-Link.com,2013-02-08 14:43:00,
2013-02-08 12:58:00,49.8,49.3,29.82,South,180,1.1,-999.0,98,-99.99,,,0.00,Acu-Link.com,2013-02-08 14:58:00,
2013-02-08 13:13:00,50.0,49.5,29.83,West,270,0.0,-999.0,98,-99.99,,,0.00,Acu-Link.com,2013-02-08 15:13:00,
2013-02-08 13:29:00,50.4,49.8,29.82,SSW,202,1.6,-999.0,98,-99.99,,,0.00,Acu-Link.com,2013-02-08 15:29:00,
2013-02-08 13:44:00,50.4,49.8,29.82,SSW,202,2.7,-999.0,98,-99.99,,,0.00,Acu-Link.com,2013-02-08 15:44:00,
2013-02-08 13:59:00,50.4,49.8,29.83,WSW,247,1.6,-999.0,98,-99.99,,,0.00,Acu-Link.com,2013-02-08 15:59:00,
2013-02-08 14:14:00,50.7,50.2,29.84,NE,45,1.6,-999.0,98,-99.99,,,0.00,Acu-Link.com,2013-02-08 16:14:00,
2013-02-08 14:29:00,49.8,49.3,29.84,East,90,2.2,-999.0,98,-99.99,,,0.00,Acu-Link.com,2013-02-08 16:29:00,
2013-02-08 14:45:00,50.2,49.6,29.84,West,270,1.6,-999.0,98,-99.99,,,0.00,Acu-Link.com,2013-02-08 16:45:00,
2013-02-08 15:00:00,50.0,49.5,29.83,South,180,0.0,-999.0,98,-99.99,,,0.00,Acu-Link.com,2013-02-08 17:00:00,
2013-02-08 15:15:00,50.5,50.0,29.83,East,90,2.7,-999.0,98,-99.99,,,0.00,Acu-Link.com,2013-02-08 17:15:00,
2013-02-08 15:30:00,50.5,50.0,29.83,ENE,67,2.2,-999.0,98,-99.99,,,0.00,Acu-Link.com,2013-02-08 17:30:00,
2013-02-08 15:46:00,51.1,50.5,29.82,SE,135,0.0,-999.0,98,-99.99,,,0.00,Acu-Link.com,2013-02-08 17:46:00,
2013-02-08 16:01:00,51.8,51.3,29.82,South,180,2.2,-999.0,98,-99.99,,,0.00,Acu-Link.com,2013-02-08 18:01:00,
2013-02-08 16:16:00,52.5,52.0,29.80,ESE,112,1.1,-999.0,98,-99.99,,,0.00,Acu-Link.com,2013-02-08 18:16:00,
2013-02-08 16:31:00,52.7,52.2,29.80,NNE,22,1.6,-999.0,98,-99.99,,,0.00,Acu-Link.com,2013-02-08 18:31:00,
2013-02-08 16:46:00,53.2,52.7,29.80,North,0,1.1,-999.0,98,-99.99,,,0.00,Acu-Link.com,2013-02-08 18:46:00,
2013-02-08 17:02:00,54.1,53.6,29.80,NE,45,3.1,-999.0,98,-99.99,,,0.00,Acu-Link.com,2013-02-08 19:02:00,
2013-02-08 17:17:00,56.1,55.6,29.79,NNW,337,4.7,-999.0,98,-99.99,,,0.00,Acu-Link.com,2013-02-08 19:17:00,
2013-02-08 17:32:00,55.9,55.4,29.79,NNW,337,1.6,-999.0,98,-99.99,,,0.00,Acu-Link.com,2013-02-08 19:32:00,
2013-02-08 17:47:00,55.0,54.5,29.80,NW,315,7.4,-999.0,98,-99.99,,,0.00,Acu-Link.com,2013-02-08 19:47:00,
2013-02-08 18:02:00,55.0,54.5,29.80,North,0,4.3,-999.0,98,-99.99,,,0.00,Acu-Link.com,2013-02-08 20:02:00,
2013-02-08 18:18:00,55.0,54.5,29.81,NNE,22,3.8,-999.0,98,-99.99,,,0.00,Acu-Link.com,2013-02-08 20:18:00,
2013-02-08 18:33:00,54.5,53.9,29.82,WNW,292,4.3,-999.0,98,-99.99,,,0.00,Acu-Link.com,2013-02-08 20:33:00,
2013-02-08 18:48:00,55.0,53.3,29.82,ESE,112,4.7,-999.0,94,-99.99,,,0.00,Acu-Link.com,2013-02-08 20:48:00,
2013-02-08 19:03:00,54.7,47.3,29.82,NE,45,2.2,-999.0,76,-99.99,,,0.00,Acu-Link.com,2013-02-08 21:03:00,
2013-02-08 19:18:00,54.3,45.9,29.81,NNW,337,3.8,-999.0,73,-99.99,,,0.00,Acu-Link.com,2013-02-08 21:18:00,
2013-02-08 19:34:00,54.1,44.2,29.82,ESE,112,5.8,-999.0,69,-99.99,,,0.00,Acu-Link.com,2013-02-08 21:34:00,
2013-02-08 19:49:00,53.6,44.4,29.82,NE,45,3.8,-999.0,71,-99.99,,,0.00,Acu-Link.com,2013-02-08 21:49:00,
2013-02-08 20:04:00,53.2,43.7,29.83,NNW,337,3.1,-999.0,70,-99.99,,,0.00,Acu-Link.com,2013-02-08 22:04:00,
2013-02-08 20:19:00,52.3,43.6,29.84,NNE,22,2.2,-999.0,72,-99.99,,,0.00,Acu-Link.com,2013-02-08 22:19:00,
2013-02-08 20:35:00,51.8,42.3,29.84,NNE,22,1.6,-999.0,70,-99.99,,,0.00,Acu-Link.com,2013-02-08 22:35:00,
2013-02-08 20:50:00,50.9,41.5,29.85,West,270,3.1,-999.0,70,-99.99,,,0.00,Acu-Link.com,2013-02-08 22:50:00,
2013-02-08 21:05:00,49.8,41.5,29.85,East,90,2.2,-999.0,73,-99.99,,,0.00,Acu-Link.com,2013-02-08 23:05:00,
2013-02-08 21:20:00,48.7,41.2,29.86,SSW,202,2.2,-999.0,75,-99.99,,,0.00,Acu-Link.com,2013-02-08 23:20:00,
2013-02-08 21:35:00,47.8,41.3,29.87,WNW,292,2.7,-999.0,78,-99.99,,,0.00,Acu-Link.com,2013-02-08 23:35:00,
2013-02-08 21:51:00,46.8,41.9,29.88,WSW,247,0.0,-999.0,83,-99.99,,,0.00,Acu-Link.com,2013-02-08 23:51:00,
2013-02-08 22:06:00,46.0,41.8,29.88,West,270,2.7,-999.0,85,-99.99,,,0.00,Acu-Link.com,2013-02-09 00:06:00,
2013-02-08 22:21:00,45.7,41.4,29.88,WNW,292,1.6,-999.0,85,-99.99,,,0.00,Acu-Link.com,2013-02-09 00:21:00,
2013-02-08 22:36:00,45.0,41.6,29.89,NNE,22,1.1,-999.0,88,-99.99,,,0.00,Acu-Link.com,2013-02-09 00:36:00,
2013-02-08 22:51:00,44.4,41.4,29.90,North,0,2.7,-999.0,89,-99.99,,,0.00,Acu-Link.com,2013-02-09 00:51:00,
2013-02-08 23:06:00,43.7,41.2,29.90,NNW,337,4.3,-999.0,91,-99.99,,,0.00,Acu-Link.com,2013-02-09 01:06:00,
2013-02-08 23:22:00,43.2,41.3,29.91,ESE,112,2.2,-999.0,93,-99.99,,,0.00,Acu-Link.com,2013-02-09 01:22:00,
2013-02-08 23:37:00,42.3,40.7,29.91,West,270,2.7,-999.0,94,-99.99,,,0.00,Acu-Link.com,2013-02-09 01:37:00,
2013-02-08 23:52:00,41.7,39.8,29.92,South,180,4.3,-999.0,93,-99.99,,,0.00,Acu-Link.com,2013-02-09 01:52:00,